Weather History for Winfield, KS

Change the Weather History Date:

Friday, January 25, 2013

  Actual Average Record
Temperature  
Mean Temperature 36 °F -  
Max Temperature 50 °F 43 °F 64 °F (2005)
Min Temperature 21 °F 23 °F 15 °F (1997)
Degree Days  
Heating Degree Days 30    
Moisture  
Dew Point 24 °F    
Average Humidity 68    
Maximum Humidity 93    
Minimum Humidity 38    
Precipitation  
Precipitation 0.00 in - - ()
Sea Level Pressure  
Sea Level Pressure 30.23 in    
Wind  
Wind Speed 4 mph (NNW)    
Max Wind Speed 7 mph    
Max Gust Speed -    
Visibility 9 miles    
Events      
Averages and records for this station are not official NWS values.
T = Trace of Precipitation, MM = Missing Value Source: NWS Daily Summary

Daily Weather History Graph

Daily Weather History Graph

Search for Another Location

Airport:

Trip Planner

Search our weather history database for the weather conditions in past years. The results will help you decide how hot, cold, wet, or windy it might be!

Date:

Astronomy

Jan. 25, 2013 Rise Set
Actual Time 7:35 AM CST 5:45 PM CST
Civil Twilight 7:08 AM CST 6:13 PM CST
Nautical Twilight 6:36 AM CST 6:44 PM CST
Astronomical Twilight 6:05 AM CST 7:15 PM CST
Moon 4:43 PM CST (1/25) 6:16 AM CST (1/25)
Length of Visible Light 11h 05m
Length of Day
10h 09m
Waxing Gibbous, 98% of the Moon is Illuminated
Jan 25
Waxing Gibbous
Jan 26
Full
Feb 3
Last Quarter
Feb 10
New
Feb 17
First Quarter

Hourly Weather History & Observations

Time (CST) Temp. Windchill Dew Point Humidity Pressure Visibility Wind Dir Wind Speed Gust Speed Precip Events Conditions
12:37 AM 26.6 °F 21.2 °F 24.8 °F 93% 30.16 in 9.0 mi NNW 4.6 mph - N/A   Overcast
12:54 AM 27.0 °F 20.5 °F 24.1 °F 89% 30.19 in 9.0 mi NNW 5.8 mph - N/A   Overcast
1:54 AM 27.0 °F 20.5 °F 24.1 °F 89% 30.20 in 9.0 mi NNW 5.8 mph - N/A   Overcast
2:54 AM 28.0 °F 21.7 °F 25.0 °F 88% 30.20 in 9.0 mi North 5.8 mph - N/A   Overcast
3:54 AM 28.0 °F 20.8 °F 24.1 °F 85% 30.19 in 10.0 mi North 6.9 mph - N/A   Overcast
4:54 AM 28.0 °F 22.8 °F 23.0 °F 81% 30.20 in 9.0 mi North 4.6 mph - N/A   Overcast
5:54 AM 26.1 °F 18.4 °F 21.0 °F 81% 30.23 in 9.0 mi NNW 6.9 mph - N/A   Mostly Cloudy
6:02 AM 24.8 °F 17.9 °F 21.2 °F 86% 30.19 in 9.0 mi NNW 5.8 mph - N/A   Scattered Clouds
6:54 AM 23.0 °F 17.0 °F 19.9 °F 88% 30.26 in 7.0 mi WNW 4.6 mph - N/A   Clear
7:54 AM 21.9 °F 15.7 °F 19.9 °F 92% 30.26 in 4.0 mi WNW 4.6 mph - N/A   Clear
8:54 AM 28.9 °F 23.9 °F 25.0 °F 85% 30.26 in 6.0 mi NNW 4.6 mph - N/A   Clear
9:54 AM 34.0 °F 28.0 °F 23.0 °F 64% 30.27 in 9.0 mi NNW 6.9 mph - N/A   Clear
10:54 AM 37.9 °F - 24.1 °F 57% 30.30 in 10.0 mi Calm Calm - N/A   Clear
11:54 AM 39.9 °F 36.7 °F 23.0 °F 51% 30.29 in 10.0 mi Variable 4.6 mph - N/A   Clear
1:54 PM 46.0 °F 44.8 °F 25.0 °F 44% 30.25 in 10.0 mi Variable 3.5 mph - N/A   Clear
2:54 PM 48.9 °F - 25.0 °F 39% 30.22 in 10.0 mi Calm Calm - N/A   Clear
3:54 PM 50.0 °F - 25.0 °F 38% 30.21 in 10.0 mi NNE 4.6 mph - N/A   Clear
4:54 PM 50.0 °F - 25.0 °F 38% 30.21 in 10.0 mi NE 3.5 mph - N/A   Clear
5:54 PM 46.0 °F - 25.0 °F 44% 30.22 in 10.0 mi Calm Calm - N/A   Clear
6:54 PM 43.0 °F - 26.1 °F 51% 30.24 in 10.0 mi Calm Calm - N/A   Clear
7:54 PM 39.0 °F - 27.0 °F 62% 30.26 in 10.0 mi Calm Calm - N/A   Clear
8:54 PM 42.1 °F - 27.0 °F 55% 30.25 in 10.0 mi Calm Calm - N/A   Clear
9:54 PM 37.9 °F - 27.0 °F 65% 30.26 in 10.0 mi Calm Calm - N/A   Clear
10:54 PM 37.0 °F - 26.1 °F 65% 30.27 in 10.0 mi Calm Calm - N/A   Clear
11:54 PM 36.0 °F - 27.0 °F 70% 30.28 in 10.0 mi Calm Calm - N/A   Clear